Showing default

CINEMA 3, 39426

Orbit data source: Space-Track

CINEMA 3, 39426 is a payload satellite owned by Kyung Hee U (US) in SSO that was launched on Thu, 21 Nov 2013 UTC via a DNEPR launch vehicle from the Orenburg, Russia (OREN). Payload-class satellites include a variety of spacecraft equipped with specific instruments for various scientific and technological missions. These include communications satellites like Starlink; space stations such as the ISS; scientific satellites like the Hubble; Earth observation satellites from companies like Planet Labs, Umbra, and HawkEye 360; GPS; miniature CubeSats for education and research; and military/defense satellites.

Loading next visibility...
Identifier
39426, 2013-066L
Orbit
SSO
Country
Flag of USUS
Related business
Manufacturer
KHUS/UCB
Mission
Non-operational Amateur Science
Bus & Motor
CUBESAT 3U, Unknown motor
Mass
4 kg wet, 4 kg dry
Launch date (UTC)
2013-11-21 (12 years ago)
Launch vehicle
DNEPR
Launch site
Orenburg, Russia (OREN)
Object type
Payload
Rocket body
Debris
Shape & HBR
Box + 1 Rod, 0.3 m
Radar Cross Section
0.035 m², Small (<0.1 m²)

Expand to show TLE details & history
Last TLE update: 11 hours ago

TLE from 11 hours ago
0 CINEMA 3
1 39426U 13066L   25300.50644281  .00002475  00000-0  33329-3 0  9991
2 39426  97.8406 213.8431 0089983 245.6740 113.5055 14.77332405640081
Epoch: 2025-10-27T12:09Z
TLE epoch observation values (Epoch: 2025-10-27T12:09:16.658Z)
Latitude
-0.00006°
Longitude
-4.58361°
Altitude
666.436 km
Speed
7.51 km/s
True Right ascension
14h 15m 22s
True Declination
0° 00' 00"
Sunlit
Object was in daylight at epoch
Visualization orbit readout
Latitude
Unknown
Longitude
Unknown
Altitude
Unknown
Speed
Unknown
Apparent Right ascension
Unknown
Apparent Declination
Unknown
Sunlit
N/A
Visualization observer readout
Local Sidereal Time
18:13:06
Azimuth
Unknown
Elevation
Unknown
Doppler factor
Unknown
Orbital elements
Apogee altitude
697.903 km
Perigee altitude
571.694 km
Semi-major axis
7,012.936 km
Eccentricity
0.009
Inclination
97.8406°
RAAN
213.8431°
Arg. of periapsis
245.674°
True anomaly
114.4468°
Mean anomaly
113.5055°
Eccentric anomaly
113.97658°
Mean motion
3.69567 °/min
Orbital period
97.41 mins
BSTAR
0.00033329
Loading maneuver chart data...
Computing Atmospheric mass density...
Loading historical data...
Loading historical data...
Loading historical data...
Loading historical data...
Loading historical data...
Loading historical data...
Loading historical data...

Documentation

Showing up to 5 results
|